Regional Weather Roundup
Issued by NWS Charleston, SC

Current Version | Previous Version | Graphics & Text | Print | Product List | Glossary On
Versions: 1 2 3 4 5 6 7 8 9 10 11 12 13 14 15 16 17 18 19 20 21 22 23 24 25 26 27 28 29 30 31 32 33 34 35 36 37 38 39 40 41 42 43 44 45 46 47 48 49 50
000 ASUS42 KCHS 311212 RWRCHS REGIONAL WEATHER ROUNDUP NATIONAL WEATHER SERVICE CHARLESTON SC 800 AM EDT MON AUG 31 2015 NOTE: "FAIR" INDICATES FEW OR NO CLOUDS BELOW 12,000 FEET WITH NO SIGNIFICANT WEATHER AND/OR OBSTRUCTIONS TO VISIBILITY. NOT ALL STATIONS ARE QUALITY CONTROLLED BY THE NATIONAL WEATHER SERVICE. USE DATA WITH CAUTION...ESPECIALLY DEWPOINT OBSERVATIONS. SCZ027-030-031-034>040-042>050-311300- ...SOUTHEAST SOUTH CAROLINA... CITY SKY/WX TMP DP RH WIND PRES REMARKS N CHARLESTON HVY RAIN 74 74 100 NW3 30.05R VSB 1/2 6HR MIN TEMP: 74; 6HR MAX TEMP: 77; 6HR PCP: 6.25; WATERFRONT PRK N/A 76 74 93 S14 30.00R MOUNT PLEASANT RAIN 75 73 94 SW8G22 30.06R JOHNS ISLAND LGT RAIN 75 75 100 CALM 30.04R PINOPOLIS N/A N/A N/A N/A MISG N/A MONCKS CORNER CLOUDY 75 72 88 CALM 30.06R SUMMERVILLE PTSUNNY 72 72 100 CALM 30.06R BEAUFORT MCAS CLOUDY 75 74 96 N8 30.03R FOG 6HR MIN TEMP: 74; 6HR MAX TEMP: 77; 6HR PCP: 0.68; BEAUFORT ARPT FAIR 73 73 100 CALM 30.02R HILTON HEAD IS MOSUNNY 75 73 94 NE7 30.03R WALTERBORO PTSUNNY 73 72 94 N5 30.05R ALLENDALE FOG 73 72 94 N7 30.04R VSB 1 ...SOUTHERN MIDLANDS AND PEE DEE... CITY SKY/WX TMP DP RH WIND PRES REMARKS GEORGETOWN NOT AVBL KINGSTREE NOT AVBL ORANGEBURG CLOUDY 71 68 90 NE8 30.07R 6HR MIN TEMP: 71; 6HR MAX TEMP: 73; 6HR PCP: 0.03; BARNWELL CLOUDY 72 72 100 N6 30.07R AIKEN CLOUDY 55 55 100 N8 30.12R FOG MANNING CLOUDY 70 70 100 N9 30.06R COLUMBIA CLOUDY 70 67 90 VRB5 30.07S 6HR MIN TEMP: 70; 6HR MAX TEMP: 73; SUMTER PTSUNNY 69 68 94 N6 30.06R 6HR MIN TEMP: 69; 6HR MAX TEMP: 71; 6HR PCP: 0.30; FLORENCE CLOUDY 71 69 93 NE3 30.09R 6HR MIN TEMP: 70; 6HR MAX TEMP: 72; 6HR PCP: 0.40; MYRTLE BEACH LGT RAIN 75 70 83 S3 30.07F N MYRTLE BEACH RAIN 73 71 93 SW9 30.06R FOG 6HR MIN TEMP: 73; 6HR MAX TEMP: 80; 6HR PCP: 0.13; $$ GAZ063-065-086>088-099>101-113>116-118-119-134>141-150-311300- ...SOUTHEAST GEORGIA... CITY SKY/WX TMP DP RH WIND PRES REMARKS SAVANNAH ARPT FOG 73 72 96 CALM 30.03R VSB 1/2 6HR MIN TEMP: 73; 6HR MAX TEMP: 75; 6HR PCP: 0.58; HUNTER AAF PTSUNNY 74 74 100 W3 30.00R 6HR MIN TEMP: 74; 6HR MAX TEMP: 76; 6HR PCP: 1.45; FORT STEWART CLOUDY 74 73 95 CALM 30.01R 6HR MIN TEMP: 74; 6HR MAX TEMP: 75; 6HR PCP: 0.06; STATESBORO CLOUDY 72 50 47 N6 30.05R HAZE SYLVANIA CLOUDY 73 73 100 N6 30.05R FOG CLAXTON NOT AVBL ...CSRA...CENTRAL AND FAR SOUTHEAST GEORGIA... CITY SKY/WX TMP DP RH WIND PRES REMARKS THOMSON CLOUDY 71 71 100 N5 30.13S AUGUSTA-BUSH CLOUDY 70 69 97 N7 30.06S FOG 6HR MIN TEMP: 68; 6HR MAX TEMP: 70; AUGUSTA-DANIEL CLOUDY 71 68 90 N7 30.08S SWAINSBORO CLOUDY N/A N/A N/A N3 30.07R FOG VIDALIA CLOUDY 72 72 100 N6 30.06R FOG EASTMAN CLOUDY 72 72 100 N3 30.09R HAZLEHURST CLOUDY 75 75 100 N6 30.05R ALMA CLOUDY 75 74 96 N3 30.04R FOG 6HR MIN TEMP: 75; 6HR MAX TEMP: 76; WAYCROSS CLOUDY 77 77 100 CALM 30.04R FOG JESUP CLOUDY 77 77 100 CALM 30.04R FOG BAXLEY CLOUDY 77 75 94 N3 30.04R BRUNSWICK CLOUDY 72 72 100 CALM 30.04R SAINT SIMONS CLOUDY 75 75 100 W5 30.02R 6HR MIN TEMP: 75; 6HR MAX TEMP: 79; 6HR PCP: 0.39; $$ SCZ027-028-034-036>038-045-046-048>050-GAZ119-141-311300- ...LAKE AND SUPPLEMENTAL COASTAL OBSERVATIONS... STATION/POSITION TIME TEMP WIND PRES WAVE SWELL AIR SEA DIR/SP/G HT/PER HT/PER/DIR (UTC) (F) (DEG/KT/KT) (MB) (FT/S) (FT/S/D) UPR LAKE MARION NOT AVBL WINYAH BAY NOT AVBL LAKE MURRAY 1100 68 350/ 2/ 8 1018.3R ACE BASIN NERRS NOT AVBL FORT PULASKI NOT AVBL SAPELO ISLAND 1100 75 290/ 3 1016.0R $$ ANZ835-935-AMZ111-154-330-350-352-354-370-450-454-472-311300- ...C-MAN AND BUOY OBSERVATIONS... STATION/POSITION TIME TEMP WIND PRES WAVE SWELL AIR SEA DIR/SP/G HT/PER HT/PER/DIR (UTC) (F) (DEG/KT/KT) (MB) (FT/S) (FT/S/D) BUOY 41004 1150 82 84 170/ 19/ 23 1015.9R 6/ 9 3/ 9 BUOY 41008 1150 81 84 270/ 8/ 10 1016.3R 5/ 6 5/130/ 6 FOLLY BEACH CMAN 1100 80 170/ 22/ 25 1016.5R CAPERS NEARSHORE 1108 82 170/ 19/ 25 1016.5S FRIPP NEARSHORE 1100 80 340/ 6/ 10 1015.5 STATION/POSITION TIME TEMP WIND PRES WAVE SWELL AIR SEA DIR/SP/G HT/PER HT/PER/DIR (UTC) (F) (DEG/KT/KT) (MB) (FT/S) (FT/S/D) 5E ST. MARYS GA 1121 85 N/A 4/ 9 FRYING PAN BUOY 1150 83 82 180/ 8/ 12 1017.9R 3/10 3/120/10 BUOY 41025 1050 81 83 CALM / 2 1020.1 3/ 9 3/110/ 9 CAPE LOOKOUT NC 1100 80 90/ 10/ 12 1018.9F BUOY 41002 1150 83 84 140/ 12/ 16 1019.6S 4/10 3/ 80/10 BUOY 41010 1120 83 85 140/ 12/ 14 1017.3R ST AUGUSTINE FL 1200 76 83 210/ 3/ 4 1017.6R $$

USA.gov is the U.S. government's official web portal to all federal, state and local government web resources and services.